SCP
0 0 0 0 0 0 0 0 0 0 0 0 0 0 0 0 0 0 0 1 1 2 2 3 4 4 5 5 5 5 5 4 4 3 3 3 3 3 3 2 2 2 2 2 2 1 1 1 1
0 0 0 0 0 0 0 0 0 0 0 0 0 0 0 0 0 0 0 1 1 2 2 3 4 5 5 5 5 5 5 4 4 4 4 4 3 3 3 2 2 2 2 2 2 2 1 1 1
0 0 0 0 0 0 0 0 0 0 0 0 0 0 0 0 0 0 0 1 2 2 2 3 4 5 5 5 5 5 5 4 4 4 5 4 4 3 3 3 2 2 2 2 2 2 1 1 0
0 0 1 0 0 0 0 0 0 0 0 0 0 0 0 0 0 0 1 1 2 2 2 3 4 5 5 5 5 5 5 4 4 5 5 5 4 4 3 3 3 3 3 2 2 2 1 1 0
0 1 1 1 0 0 0 0 0 0 0 0 0 0 0 0 0 0 1 1 2 2 3 3 4 5 5 5 5 5 5 5 5 5 5 5 4 4 4 3 3 3 3 2 2 1 1 1 0
0 1 1 1 0 0 0 0 0 0 0 0 0 0 0 0 0 1 1 1 2 3 3 3 4 4 5 5 5 5 5 5 5 5 5 5 4 4 4 4 4 3 3 2 2 1 1 1 1
0 0 0 0 0 0 0 0 0 0 0 0 0 0 0 0 0 1 1 1 2 3 4 4 4 4 4 4 5 5 5 5 5 5 5 4 4 4 4 4 4 3 3 3 2 1 1 1 1
0 0 0 0 0 0 0 0 0 0 0 0 0 0 0 0 1 1 1 2 3 4 4 4 3 3 4 4 5 5 5 5 5 5 4 4 4 3 3 4 4 4 3 3 2 2 1 1 1
0 0 0 0 0 0 0 0 0 0 0 0 0 0 0 1 1 1 2 2 3 4 5 4 3 3 3 4 4 5 5 5 5 4 4 3 3 3 3 3 3 4 4 3 2 2 1 1 0
0 0 0 0 0 0 0 0 0 0 0 0 0 0 1 1 1 1 2 2 3 4 4 4 4 4 4 4 4 5 5 5 4 4 4 3 3 3 2 2 3 3 3 3 2 2 1 1 0
0 0 0 0 0 0 0 0 0 0 0 0 0 0 1 1 1 1 1 2 3 3 4 4 4 4 4 4 4 5 6 5 5 4 4 3 3 3 2 3 3 3 3 3 2 1 1 0 0
0 0 0 0 0 0 0 0 0 0 0 0 0 0 0 1 1 1 1 1 2 3 3 3 4 4 4 4 4 5 6 6 5 4 4 4 4 3 3 3 3 3 2 2 2 1 0 0 0
0 0 0 0 0 0 0 0 0 0 0 0 0 0 0 1 1 1 1 1 1 2 3 3 4 4 5 4 5 5 6 5 5 4 4 4 4 4 4 4 3 3 2 2 1 1 0 0 0
0 0 0 0 0 0 0 0 0 0 0 0 0 0 0 0 1 1 1 1 1 1 2 3 3 4 5 4 5 5 6 5 5 5 4 3 4 5 5 4 3 3 2 1 1 0 0 0 0
0 0 0 0 0 0 0 0 0 0 0 0 0 0 0 0 1 1 1 1 1 1 2 3 4 4 4 4 4 5 6 5 5 4 4 3 4 4 5 4 4 3 2 1 0 0 0 0 0
0 0 0 0 0 0 0 0 0 0 0 0 0 0 0 0 1 1 1 1 1 1 2 3 4 4 4 3 4 5 6 6 5 4 4 4 4 4 5 5 4 3 2 1 0 0 0 0 0
0 0 0 0 0 0 0 0 0 0 0 0 0 0 0 0 1 1 1 1 1 1 2 2 3 4 4 4 4 5 6 5 5 4 4 4 4 4 4 4 4 3 2 1 0 0 0 0 0
0 0 0 0 0 0 0 0 0 0 0 0 0 0 0 0 0 1 1 1 1 2 2 2 3 3 4 4 4 5 5 5 4 4 4 4 4 4 4 4 4 3 2 1 0 0 0 0 0
0 0 0 0 0 0 0 0 0 0 0 0 0 0 0 0 0 1 1 1 1 1 2 2 2 3 4 4 4 4 4 4 4 4 4 3 3 4 4 4 4 3 1 0 0 0 0 0 0
0 0 0 0 0 0 0 0 0 0 0 0 0 0 0 0 0 1 1 1 1 1 2 2 2 2 3 4 3 3 3 3 4 4 4 3 3 3 4 4 4 3 1 0 0 0 0 0 0
0 0 0 0 0 0 0 0 0 0 0 0 0 0 0 0 0 1 1 1 1 1 1 2 2 2 3 3 3 2 2 2 3 4 4 3 2 3 3 4 4 3 1 0 0 0 0 0 0
0 0 0 0 0 0 0 0 0 0 0 0 0 0 0 0 0 0 1 1 1 1 1 2 2 2 2 3 2 2 2 2 2 3 4 3 2 2 3 4 4 3 1 0 0 0 0 0 0
0 0 0 0 0 0 0 0 0 0 0 0 0 0 0 0 0 0 1 1 1 1 2 2 2 1 2 2 2 1 1 1 1 3 4 3 3 2 3 4 4 3 1 0 0 0 0 0 0
0 0 0 0 0 0 0 0 0 0 0 0 0 0 0 0 0 0 1 1 1 1 2 2 2 1 1 1 1 1 1 1 1 2 3 3 3 2 3 4 4 3 2 1 0 0 0 0 0
0 0 0 0 0 0 0 0 0 0 0 0 0 0 0 0 0 0 1 1 1 1 2 2 2 1 1 1 1 1 1 1 1 2 2 3 3 2 3 4 4 3 2 1 0 0 0 0 0
0 0 0 0 0 0 0 0 0 0 0 0 0 0 0 0 0 0 0 1 1 1 2 2 2 1 1 1 1 1 1 1 1 1 2 3 3 2 3 4 4 3 2 1 0 0 0 0 0
0 0 0 0 0 0 0 0 0 0 0 0 0 0 0 0 0 0 0 1 1 1 1 1 1 1 1 1 1 1 1 1 1 1 1 2 2 2 3 4 4 3 2 1 0 0 0 0 0
0 0 0 0 0 0 0 0 0 0 0 0 0 0 0 0 0 0 0 0 1 1 1 2 1 1 1 1 1 1 1 1 1 1 1 2 2 1 2 4 4 3 2 1 0 0 0 0 0
0 0 0 0 0 0 0 0 0 0 0 0 0 0 0 0 0 0 0 0 1 1 1 2 1 1 1 1 1 1 1 1 1 1 1 1 1 1 2 4 4 3 1 1 0 0 0 0 0
0 0 0 0 0 0 0 0 0 0 0 0 0 0 0 0 0 0 0 0 0 1 1 2 1 1 1 1 1 1 1 1 1 1 0 1 1 1 2 4 4 3 1 0 0 0 0 0 0
Wind_Speed
12 11 7 3 4 7 13 12 11 9 7 4 3 4 6 6 4 1 3 3 7 9 13 17 17 17 17 17 18 18 18 18 18 18 18 18 18 18 17 17 17 17 17 17 17 17 17 17 16
11 9 4 3 6 11 12 13 15 12 9 4 4 4 6 7 5 4 4 5 7 8 11 14 16 16 17 17 18 18 19 19 18 18 18 18 18 18 17 17 17 17 17 17 17 17 17 17 16
12 9 4 5 10 13 9 4 6 6 6 4 4 5 6 5 4 2 5 5 6 7 9 13 17 16 17 17 18 18 19 19 19 19 19 19 18 18 17 17 17 17 17 17 17 17 17 16 15
5 4 5 9 19 16 12 10 9 8 7 4 4 5 4 4 2 4 4 5 5 6 7 12 17 17 17 17 17 18 19 19 19 19 19 19 19 18 17 17 17 17 17 17 17 17 16 16 15
4 4 9 14 21 17 14 13 12 12 9 7 6 8 7 5 4 4 4 3 2 4 6 10 17 18 17 17 17 18 19 19 19 19 19 19 19 18 17 17 17 17 18 18 17 17 16 15 14
4 5 9 15 18 15 12 11 11 13 10 9 8 10 9 6 3 3 4 2 1 2 6 9 16 17 17 17 18 18 19 19 20 19 19 19 19 19 19 18 18 17 18 18 17 17 16 15 14
5 6 13 17 16 14 11 10 10 11 12 10 9 11 8 7 3 4 4 3 2 1 4 7 10 13 15 16 17 17 18 19 19 19 19 19 19 19 20 19 18 18 17 17 17 17 16 15 13
4 6 12 14 15 14 9 9 10 11 13 9 8 8 7 6 6 6 4 3 3 1 3 6 8 9 10 12 15 16 17 18 18 18 17 17 18 18 19 17 17 18 17 17 17 17 16 15 13
4 7 12 11 11 11 12 14 13 12 12 12 10 11 9 8 7 6 4 3 3 3 3 6 8 9 9 10 12 14 15 16 17 15 17 16 11 12 12 14 16 18 18 17 17 17 16 14 11
5 9 13 11 12 15 16 16 15 13 16 14 13 11 9 9 8 7 6 6 4 5 5 5 7 8 9 9 8 8 9 10 11 11 13 10 9 9 11 14 15 17 17 17 17 16 15 10 5
6 11 13 14 14 16 17 18 15 17 18 16 15 13 10 11 10 10 8 8 7 6 6 6 6 7 8 6 6 5 5 7 9 12 12 9 8 8 8 7 8 10 12 9 11 11 6 5 4
10 14 16 16 15 16 18 17 17 18 20 15 16 15 13 12 12 11 10 8 8 7 8 7 7 7 7 7 6 6 6 6 7 10 12 9 7 8 8 6 7 7 6 7 6 5 6 6 6
13 13 15 16 16 17 19 19 19 20 17 15 15 15 14 14 13 12 11 9 9 9 9 9 7 7 7 7 7 7 7 7 8 9 11 11 9 9 9 8 7 7 7 7 6 5 6 6 6
9 13 17 18 19 17 19 19 17 18 15 15 14 14 14 14 13 11 10 10 9 9 9 8 9 8 8 7 7 7 7 8 8 8 11 13 10 10 9 9 8 7 7 7 6 6 6 5 5
12 15 17 15 14 12 14 16 15 13 12 14 14 13 14 14 12 12 10 10 9 9 9 9 9 8 8 8 8 7 7 7 8 9 11 13 12 11 10 9 9 8 8 8 6 6 5 5 4
11 10 10 10 10 9 8 15 12 10 12 14 13 12 13 13 13 11 10 10 9 9 9 9 9 8 8 8 7 6 7 7 8 8 10 13 13 13 10 9 8 9 8 7 6 6 5 5 4
4 7 13 14 9 11 11 16 14 11 12 13 12 11 11 12 12 10 9 10 9 9 9 9 9 9 8 7 6 7 8 7 7 8 8 11 14 14 11 9 9 10 7 6 7 6 5 6 5
10 12 14 15 12 15 15 17 16 13 12 12 10 9 9 11 11 9 8 9 9 9 9 9 9 9 8 7 5 6 7 7 7 8 9 12 11 13 12 10 11 10 8 7 7 7 6 5 5
13 14 18 19 15 14 17 18 16 12 10 9 8 7 8 9 10 8 7 8 7 7 8 8 9 9 7 6 6 6 7 7 7 8 11 12 12 13 12 10 12 10 9 9 8 6 8 6 5
12 14 16 16 13 15 16 16 13 10 9 7 7 6 6 7 8 9 8 7 7 7 8 8 8 8 8 7 6 6 7 6 7 8 10 12 12 13 12 13 11 11 9 10 9 8 6 5 6
13 11 13 17 19 10 11 11 7 7 6 6 6 6 5 6 8 9 8 6 5 6 7 6 6 7 7 8 6 5 5 5 5 8 8 10 12 13 12 14 13 12 11 10 10 9 8 7 6
11 10 15 18 13 7 5 8 6 7 7 7 7 6 6 6 7 8 7 6 6 6 5 6 5 7 7 7 7 9 8 7 8 7 7 9 11 13 13 14 14 13 10 11 11 9 8 9 8
9 14 16 17 12 9 7 6 6 4 6 7 7 7 7 7 7 7 7 6 6 5 4 4 5 5 7 7 8 9 8 7 7 8 9 9 10 11 13 13 13 13 10 11 11 10 9 7 7
11 13 14 10 4 5 5 4 4 3 5 7 8 8 7 8 8 8 8 6 5 5 3 3 4 5 6 8 8 9 10 10 11 12 11 10 9 9 12 13 12 12 11 12 11 11 11 8 7
8 7 6 6 2 4 5 4 2 3 4 4 6 7 7 8 8 9 9 7 7 6 4 3 3 5 5 7 8 9 11 12 12 13 12 11 10 9 12 12 11 11 11 12 11 10 11 10 9
6 4 2 5 5 8 8 4 1 3 5 5 5 5 7 8 8 9 9 7 6 6 5 4 4 4 5 6 8 8 10 8 8 11 11 12 10 10 13 12 11 11 12 12 11 9 9 9 9
4 3 4 5 8 8 6 3 2 5 7 8 8 8 7 8 8 9 9 8 7 6 5 4 5 4 4 6 7 8 9 9 9 10 11 10 10 10 14 13 12 12 13 13 13 9 10 10 9
4 4 3 3 5 6 7 4 3 6 8 9 9 9 10 9 8 9 8 8 8 6 5 4 4 5 4 5 6 6 9 9 9 10 12 11 12 13 15 14 13 12 12 13 12 10 10 10 9
3 2 3 4 5 5 8 6 3 6 8 8 8 8 9 10 9 9 8 7 8 7 6 5 4 4 3 4 5 6 7 7 8 10 11 12 12 14 15 15 14 13 13 13 12 11 12 12 10
4 4 3 4 6 5 8 9 3 4 6 8 9 9 9 9 9 9 8 8 7 7 7 7 5 4 4 4 5 5 6 6 7 9 11 11 12 13 15 15 14 14 13 13 14 14 13 13 12
Wind_Direction
300 273 250 238 238 233 240 238 250 267 267 281 333 308 295 274 281 62 162 109 98 128 144 159 163 166 166 165 162 158 156 155 153 151 149 146 144 142 139 136 134 131 127 123 120 117 114 111 107
294 276 249 231 231 235 241 231 242 256 272 313 326 307 290 285 307 94 117 93 108 128 143 159 163 168 168 168 165 161 159 157 156 154 151 149 147 145 143 139 136 131 127 123 121 118 116 112 110
276 266 238 226 226 231 245 245 251 261 277 290 286 281 268 276 299 41 105 101 108 129 146 158 164 169 171 171 169 165 163 161 159 157 154 152 149 147 145 140 136 132 129 125 122 120 118 115 113
270 237 238 239 240 238 253 276 293 294 290 287 282 272 261 264 350 62 86 88 106 129 146 159 166 172 174 174 171 169 167 165 163 160 156 154 152 148 145 141 137 134 131 127 125 123 120 118 116
252 242 235 240 246 251 261 275 287 288 287 291 279 271 276 303 41 60 58 66 107 139 149 162 170 174 176 176 175 173 171 168 165 162 159 157 154 150 145 141 138 136 133 131 128 126 123 121 120
247 238 240 244 250 253 258 272 283 284 283 285 284 274 272 294 323 39 30 16 12 151 153 162 174 177 179 179 178 177 175 171 168 165 162 159 155 151 147 144 141 138 137 135 132 130 127 124 123
257 259 252 261 269 270 276 293 290 294 292 289 295 280 272 283 340 18 6 343 325 162 158 164 178 180 181 182 180 179 176 173 169 167 163 158 155 152 151 148 145 142 141 138 135 133 130 127 126
278 274 261 259 268 273 290 297 296 299 295 304 298 280 282 307 336 335 336 332 318 238 177 180 184 185 183 182 182 180 177 175 170 166 161 156 154 154 151 147 147 145 143 141 138 135 133 130 130
275 253 255 262 284 294 312 308 307 312 299 293 288 288 301 313 322 323 310 298 291 265 215 196 194 188 183 184 183 178 176 175 170 164 156 153 154 152 150 148 148 147 145 144 141 137 134 131 134
229 247 260 284 300 305 305 300 303 299 293 290 288 296 310 308 306 293 282 266 251 247 231 219 201 195 184 186 182 179 178 173 173 166 162 160 155 153 149 147 149 148 146 145 143 140 138 134 139
243 255 281 290 296 301 297 294 293 288 280 281 286 291 292 290 287 278 267 266 246 237 234 229 217 202 189 180 182 181 174 174 172 170 169 160 152 148 144 147 146 145 145 144 143 145 154 148 147
269 272 282 287 294 294 290 287 283 274 277 284 283 282 280 275 273 270 262 258 260 244 234 230 225 210 196 185 180 180 176 174 175 174 169 160 155 152 153 154 154 154 150 147 154 164 156 145 152
276 278 286 292 292 288 285 276 276 273 277 280 278 275 273 270 267 264 259 251 253 244 236 231 226 218 203 188 181 182 181 176 177 176 170 161 156 157 159 157 156 156 152 158 164 163 150 150 155
284 292 292 288 283 279 275 273 269 270 276 276 275 275 273 267 266 265 261 252 251 244 233 232 225 222 208 195 186 178 182 179 176 176 171 165 160 161 162 157 157 156 156 161 164 155 151 148 143
287 284 283 274 273 276 284 272 260 270 279 278 274 273 273 273 266 260 261 256 254 245 233 228 226 221 210 198 189 179 179 183 178 175 172 169 163 162 161 158 157 157 158 159 159 145 145 138 137
270 273 283 297 297 292 278 272 275 288 285 281 279 275 271 271 267 259 260 258 255 246 236 225 228 219 208 199 190 181 177 186 182 174 172 170 166 163 158 155 156 156 156 157 154 148 141 138 140
271 297 300 308 300 304 285 281 288 290 284 280 275 270 270 275 273 267 265 257 254 248 238 225 221 216 207 198 193 186 180 183 181 172 171 170 168 165 158 155 154 155 155 156 155 149 145 145 141
307 305 300 301 301 305 297 290 292 293 283 276 273 271 273 275 278 277 270 261 250 244 239 226 221 213 200 193 190 189 182 180 183 173 170 169 169 165 158 154 155 155 155 154 153 150 146 145 142
295 296 297 297 301 306 297 292 290 293 287 278 274 277 280 280 288 294 285 271 256 246 241 223 220 211 194 185 183 187 185 179 181 176 167 166 168 166 159 156 156 158 159 159 156 150 148 145 136
299 297 297 301 311 308 293 288 286 283 281 284 286 296 293 299 306 303 295 276 259 250 242 220 221 216 198 185 183 184 182 180 182 177 169 167 169 165 163 159 160 161 159 161 161 153 146 151 146
302 294 303 307 312 294 288 289 292 312 317 332 317 309 314 305 304 303 296 282 269 254 240 233 224 220 205 188 181 178 177 173 180 177 171 172 173 168 165 164 160 164 163 166 165 162 155 156 160
302 302 305 303 308 295 302 299 307 318 336 344 346 348 341 322 311 314 314 297 282 270 243 228 227 220 204 189 188 187 190 190 184 175 170 172 173 169 165 167 164 166 167 166 167 164 159 157 166
297 306 299 291 284 284 271 261 289 317 331 349 353 352 341 327 322 324 316 311 298 291 254 232 223 228 207 193 195 192 193 193 178 169 170 175 172 171 169 168 167 169 169 168 167 165 164 164 168
311 313 300 279 260 269 269 256 290 325 341 354 355 351 346 336 333 330 327 328 320 310 283 244 232 232 221 201 201 198 191 190 182 173 174 175 171 172 173 170 170 171 169 170 169 167 169 170 170
332 339 335 339 311 264 318 292 273 336 6 359 352 347 347 347 342 338 337 331 325 317 304 278 253 240 232 211 209 203 194 190 189 178 178 176 173 172 176 173 173 174 171 170 168 168 171 172 172
317 332 325 310 301 305 312 275 250 348 3 0 359 354 353 352 344 338 334 328 322 317 302 292 263 253 245 230 219 210 197 193 193 186 183 181 176 173 175 175 175 176 173 172 170 169 172 172 174
309 297 274 271 278 277 267 259 262 340 353 356 4 1 353 348 340 335 334 336 332 316 300 287 276 263 251 246 234 220 203 197 194 190 186 180 175 171 173 176 176 177 176 174 173 175 173 174 177
252 295 325 309 300 291 291 293 304 345 350 352 355 352 347 344 339 332 333 336 332 321 303 286 279 269 260 253 241 236 210 196 196 192 185 181 177 172 171 176 177 178 178 176 175 174 174 175 176
277 281 279 269 263 285 295 290 334 344 340 340 342 344 346 344 338 332 334 335 333 333 336 318 295 287 281 269 252 248 217 200 199 192 185 183 178 176 175 176 177 179 180 178 178 178 175 177 176
239 252 255 269 282 273 280 279 296 324 335 338 337 337 336 337 336 330 334 338 339 337 338 333 320 300 282 272 260 252 228 204 200 191 186 184 182 180 177 175 178 181 182 181 181 180 178 178 178